{"data":{"norad_id":58139,"epoch":"2026-05-25T03:25:18.623424Z","epoch_age_seconds":59962,"freshness":"FRESH","line1":"1 58139U 23162X   26145.14257666  .00000641  00000+0  32822-4 0  9996","line2":"2 58139  43.0035  60.3675 0000640 271.8885  88.1893 15.27576602144006","mean_motion":15.27576602,"eccentricity":6.4e-5,"inclination_deg":43.0035,"raan_deg":60.3675,"arg_perigee_deg":271.8885,"mean_anomaly_deg":88.1893,"bstar":3.2822e-5,"rev_number":14400,"period_min":94.266958404224,"perigee_km":482.6201543316,"apogee_km":483.49838745428,"semimajor_km":6861.1962708929,"source":"CELESTRAK","updated_at":"2026-05-25T13:38:18.535385Z"}}